Location: Newark
(6.1167°N, 1.2167°E)
Time: 14:01:22
(UTC+00:00)

Envisat - Visible Passes

Search period start: 16 October 2019 00:00
Search period end: 26 October 2019 00:00
Orbit: 764 x 766 km, 98.1° (Epoch: 16 October)

Date Brightness Start Highest point End Pass type
(mag) Time Alt. Az. Time Alt. Az. Time Alt. Az.
16 Oct 3.0 18:09:07 10° SSE 18:14:05 57° ENE 18:19:02 10° N visible
17 Oct 5.3 19:12:10 10° SSW 19:16:12 24° W 19:20:14 10° NW visible
18 Oct 3.3 18:34:28 10° S 18:39:30 69° WSW 18:44:33 10° NNW visible
19 Oct 3.4 17:58:06 10° SSE 18:02:51 41° ENE 18:07:35 10° N visible
19 Oct 6.3 19:40:14 10° WSW 19:41:39 11° W 19:43:04 10° W visible
20 Oct 4.8 19:00:28 10° SSW 19:04:57 32° WSW 19:09:27 10° NW visible
21 Oct 3.0 18:23:11 10° SSE 18:28:16 87° E 18:33:21 10° N visible
22 Oct 5.9 19:27:27 10° SW 19:30:24 16° W 19:33:22 10° WNW visible
23 Oct 4.2 18:48:54 10° S 18:53:43 44° WSW 18:58:31 10° NNW visible
24 Oct 3.0 18:12:01 10° SSE 18:17:02 64° ENE 18:22:02 10° N visible
25 Oct 5.5 19:15:22 10° SSW 19:19:10 21° W 19:22:57 10° NW visible
